Home   Weather   Vaduz   Past weeks

Flag for Liechtenstein Past Weather in Vaduz, Liechtenstein — Yesterday and Last 2 Weeks

Now
46 °F

Cool.


Feels Like: 42 °F
Forecast: 39 / 52 °F
Wind: 8 mph from South

Location: Vaduz

Current Time: Feb 21, 2017 at 10:37:27 pm

Latest Report: Feb 21, 2017 at 9:00 pm


Visibility: N/A

Pressure: 30.16 "Hg

Humidity: 89%

Dew Point: 43 °F

Location of VaduzLocation

Past Weather in Vaduz — Graph

°F

Vaduz Temperature Yesterday

Maximum temperature yesterday: 54 °F (at 3:00 pm)
Minimum temperature yesterday: 38 °F (at 8:00 am)
Average temperature yesterday: 45 °F

High & Low Weather Summary for the Past Weeks

 TemperatureHumidityPressure
High56 °F (Feb 16, 3:00 pm)100% (Feb 11, 7:00 am)30.68 "Hg (Feb 11, 7:00 am)
Low26 °F (Feb 15, 6:00 am)31% (Feb 16, 2:00 pm)30.02 "Hg (Feb 7, 3:00 pm)
Average38 °F76%30.29 "Hg
* Reported Feb 6 9:00 pm — Feb 21 9:00 pm, Vaduz, Weather by CustomWeather, © 2017

Note: Actual official high and low records may vary slightly from our data, if they occured in-between our weather recording intervals... More about our weather records

Advertising

Vaduz Weather History for the Previous 24 Hours

Scroll right to see more
 ConditionsComfort  
Time TempWeatherWind HumidityBarometerVisibility
9:00 pm
Tue, Feb 21
46 °FCool.8 mph89%30.16 "HgN/A
8:00 pm47 °FCool.6 mph88%30.16 "HgN/A
7:00 pm47 °FFog.7 mph86%30.16 "Hg4 mi
6:00 pm47 °FCool.7 mph87%30.16 "HgN/A
5:00 pm47 °FCool.8 mph86%30.14 "HgN/A
4:00 pm47 °FFog.7 mph84%30.15 "Hg4 mi
3:00 pm47 °FCool.12 mph87%30.15 "HgN/A
2:00 pm47 °FCool.8 mph80%30.16 "HgN/A
1:00 pm46 °FDrizzle. Overcast.6 mph82%30.18 "Hg3 mi
12:00 pm45 °FQuite cool.10 mph79%30.19 "HgN/A
11:00 am44 °FQuite cool.3 mph81%30.19 "HgN/A
10:00 am44 °FOvercast.6 mph78%30.19 "Hg4 mi
9:00 am44 °FQuite cool.9 mph70%30.19 "HgN/A
8:00 am44 °FQuite cool.9 mph69%30.19 "HgN/A
7:00 am44 °FDrizzle. Overcast.9 mph72%30.18 "Hg2 mi
6:00 am44 °FQuite cool.7 mph75%30.19 "HgN/A
5:00 am45 °FCool.8 mph65%30.20 "HgN/A
4:00 am46 °FFog.5 mph62%30.21 "Hg6 mi
3:00 am46 °FCool.5 mph62%30.23 "HgN/A
2:00 am45 °FCool.6 mph59%30.24 "HgN/A
1:00 am45 °FFog.10 mph65%30.25 "Hg6 mi
12:00 am46 °FCool.7 mph56%30.24 "HgN/A
11:00 pm
Mon, Feb 20
48 °FCool.7 mph49%30.22 "HgN/A
10:00 pm47 °FFog.5 mph57%30.23 "Hg6 mi
Weather by CustomWeather, © 2017

See weather overviewHow to use our weather pages